Weather History for KC29 - March, 2014

Change the Weather History Date:

Wednesday, March 12, 2014

  Actual Average (KMSN) Record (KMSN)
Temperature  
Mean Temperature 26 °F 32 °F  
Max Temperature 35 °F 41 °F 75 °F (1990)
Min Temperature 14 °F 23 °F -7 °F (1948)
Degree Days  
Heating Degree Days 40 33  
Month to date heating degree days 419  
Since 1 July heating degree days 5905  
Cooling Degree Days 0 0  
Month to date cooling degree days 0  
Year to date cooling degree days 0  
Moisture  
Dew Point 19 °F    
Average Humidity 71    
Maximum Humidity 90    
Minimum Humidity 51    
Precipitation  
Precipitation 0.00 in 0.06 in 0.81 in (1923)
Month to date precipitation 0.73  
Year to date precipitation 3.41  
Snow  
Snow 0.00 in 0.20 in 12.90 in (1923)
Month to date snowfall 3.3  
Since 1 July snowfall 44.4  
Snow Depth -    
Sea Level Pressure  
Sea Level Pressure 29.96 in    
Wind  
Wind Speed 10 mph (NE)    
Max Wind Speed 21 mph    
Max Gust Speed 24 mph    
Visibility 9 miles    
Events      
T = Trace of Precipitation, MM = Missing Value Source: NWS Daily Summary

Daily Weather History Graph

Daily Weather History Graph

Search for Another Location

Airport or City:

Trip Planner

Search our weather history database for the weather conditions in past years. The results will help you decide how hot, cold, wet, or windy it might be!

Date:

Astronomy

Mar. 12, 2014 Rise Set
Actual Time 7:15 AM CDT 7:00 PM CDT
Civil Twilight 6:47 AM CDT 7:29 PM CDT
Nautical Twilight 6:14 AM CDT 8:02 PM CDT
Astronomical Twilight 5:40 AM CDT 8:35 PM CDT
Moon 3:27 PM CDT (3/12) 4:51 AM CDT (3/12)
Length of Visible Light 12h 42m
Length of Day
11h 45m
Waxing Gibbous, 85% of the Moon is Illuminated
Mar 12
Waxing Gibbous
Mar 16
Full
Mar 23
Last Quarter
Mar 30
New
Apr 7
First Quarter

Hourly Weather History & Observations

Time (CDT) Temp. Windchill Dew Point Humidity Pressure Visibility Wind Dir Wind Speed Gust Speed Precip Events Conditions
12:15 AM 36.5 °F 29.7 °F 32.0 °F 84% 29.80 in 10.0 mi East 9.2 mph - N/A   Overcast
12:35 AM 35.8 °F 27.8 °F 30.4 °F 81% 29.79 in 10.0 mi ENE 11.5 mph - N/A   Overcast
12:55 AM 35.4 °F 26.8 °F 29.8 °F 80% 29.80 in 10.0 mi NE 12.7 mph - N/A   Overcast
1:15 AM 35.1 °F 26.9 °F 29.1 °F 79% 29.81 in 10.0 mi NE 11.5 mph - N/A   Overcast
1:35 AM 34.7 °F 26.9 °F 28.8 °F 79% 29.81 in 10.0 mi NE 10.4 mph - N/A   Overcast
1:55 AM 34.7 °F 28.1 °F 27.3 °F 74% 29.81 in 10.0 mi NE 8.1 mph - N/A   Overcast
2:15 AM 34.2 °F 26.2 °F 27.5 °F 77% 29.82 in 10.0 mi NE 10.4 mph - N/A   Overcast
2:35 AM 34.0 °F 24.6 °F 27.3 °F 77% 29.82 in 10.0 mi NE 13.8 mph - N/A   Overcast
2:55 AM 33.4 °F 24.8 °F 27.5 °F 79% 29.82 in 7.0 mi NE 11.5 mph 16.1 mph N/A   Overcast
3:15 AM 32.9 °F 22.0 °F 27.5 °F 81% 29.82 in 10.0 mi NE 17.3 mph 23.0 mph N/A   Overcast
3:35 AM 32.4 °F 23.0 °F 28.4 °F 85% 29.82 in 10.0 mi NNE 12.7 mph - N/A   Overcast
3:55 AM 32.0 °F 24.8 °F 29.3 °F 90% 29.82 in 10.0 mi NNE 8.1 mph - N/A   Overcast
4:15 AM 32.0 °F 24.8 °F 28.4 °F 87% 29.83 in 10.0 mi NNE 8.1 mph - N/A   Overcast
4:35 AM 32.0 °F 25.6 °F 28.4 °F 87% 29.83 in 10.0 mi NNE 6.9 mph - N/A   Overcast
4:55 AM 32.0 °F 23.6 °F 26.6 °F 80% 29.83 in 10.0 mi ENE 10.4 mph - N/A   Overcast
5:15 AM 32.0 °F 23.0 °F 25.2 °F 76% 29.83 in 10.0 mi ENE 11.5 mph - N/A   Overcast
5:35 AM 32.0 °F 23.6 °F 25.0 °F 75% 29.84 in 10.0 mi ENE 10.4 mph - N/A   Overcast
5:55 AM 32.0 °F 24.8 °F 25.2 °F 76% 29.85 in 10.0 mi NE 8.1 mph - N/A   Overcast
6:15 AM 31.8 °F 25.4 °F 25.7 °F 78% 29.85 in 10.0 mi NE 6.9 mph - N/A   Overcast
6:35 AM 31.5 °F 23.5 °F 25.7 °F 79% 29.86 in 10.0 mi NE 9.2 mph - N/A   Overcast
6:55 AM 30.2 °F 18.9 °F 21.9 °F 71% 29.87 in 10.0 mi NNE 16.1 mph - N/A   Overcast
7:15 AM 29.1 °F 17.5 °F 21.2 °F 72% 29.88 in 7.0 mi NE 16.1 mph - N/A   Overcast
7:35 AM 28.2 °F 17.2 °F 18.9 °F 68% 29.90 in 7.0 mi NE 13.8 mph - N/A   Overcast
7:55 AM 27.5 °F 14.6 °F 18.9 °F 70% 29.91 in 7.0 mi NE 18.4 mph - N/A   Overcast
8:15 AM 27.0 °F 13.9 °F 18.3 °F 70% 29.92 in 7.0 mi NE 18.4 mph 23.0 mph N/A   Overcast
8:35 AM 25.9 °F 14.3 °F 18.3 °F 73% 29.93 in 3.0 mi NE 13.8 mph 24.2 mph N/A   Overcast
8:55 AM 25.5 °F 15.5 °F 19.8 °F 79% 29.94 in 2.0 mi NE 10.4 mph - N/A   Overcast
9:15 AM 25.7 °F 15.1 °F 20.7 °F 81% 29.95 in 3.0 mi NE 11.5 mph - N/A   Overcast
9:35 AM 25.7 °F 12.7 °F 20.8 °F 82% 29.96 in 3.0 mi NE 17.3 mph 20.7 mph N/A   Overcast
9:55 AM 25.5 °F 11.3 °F 18.0 °F 73% 29.96 in 7.0 mi NE 20.7 mph - N/A   Overcast
10:15 AM 25.7 °F 13.1 °F 16.7 °F 69% 29.97 in 10.0 mi NNE 16.1 mph 23.0 mph N/A   Overcast
10:35 AM 26.4 °F 13.6 °F 17.1 °F 68% 29.97 in 10.0 mi NE 17.3 mph 20.7 mph N/A   Overcast
10:55 AM 26.6 °F 14.3 °F 17.4 °F 68% 29.98 in 10.0 mi NNE 16.1 mph 20.7 mph N/A   Overcast
11:15 AM 26.2 °F 14.2 °F 17.1 °F 68% 29.99 in 10.0 mi NNE 15.0 mph - N/A   Overcast
11:35 AM 26.4 °F 15.5 °F 18.0 °F 70% 29.99 in 10.0 mi NNE 12.7 mph - N/A   Overcast
11:55 AM 27.1 °F 17.5 °F 18.9 °F 71% 29.99 in 10.0 mi NE 10.4 mph - N/A   Overcast
12:15 PM 27.3 °F 17.1 °F 19.6 °F 73% 29.99 in 10.0 mi NE 11.5 mph - N/A   Overcast
12:35 PM 27.5 °F 19.3 °F 19.0 °F 71% 29.99 in 10.0 mi NE 8.1 mph - N/A   Overcast
12:55 PM 28.9 °F 21.1 °F 18.9 °F 66% 29.99 in 10.0 mi North 8.1 mph - N/A   Overcast
1:15 PM 30.2 °F 20.2 °F 19.0 °F 63% 29.99 in 10.0 mi North 12.7 mph - N/A   Overcast
1:35 PM 29.1 °F 20.0 °F 20.5 °F 70% 29.99 in 10.0 mi North 10.4 mph - N/A   Overcast
1:55 PM 27.5 °F 18.0 °F 20.3 °F 74% 29.99 in 10.0 mi ENE 10.4 mph 17.3 mph N/A   Mostly Cloudy
2:15 PM 27.0 °F 16.7 °F 19.6 °F 74% 29.99 in 10.0 mi ENE 11.5 mph - N/A   Overcast
2:35 PM 27.3 °F 18.4 °F 18.3 °F 69% 29.99 in 10.0 mi ENE 9.2 mph - N/A   Overcast
2:55 PM 27.5 °F 20.2 °F 18.1 °F 68% 29.99 in 10.0 mi East 6.9 mph - N/A   Overcast
3:15 PM 27.7 °F 21.3 °F 16.9 °F 64% 30.00 in 10.0 mi ENE 5.8 mph - N/A   Overcast
3:35 PM 28.4 °F 23.3 °F 15.6 °F 59% 30.01 in 10.0 mi NNE 4.6 mph - N/A   Overcast
3:55 PM 27.3 °F 19.9 °F 14.7 °F 59% 30.01 in 10.0 mi NE 6.9 mph - N/A   Overcast
4:15 PM 27.7 °F 23.8 °F 13.6 °F 56% 30.02 in 10.0 mi ENE 3.5 mph - N/A   Overcast
4:35 PM 27.0 °F 20.5 °F 12.7 °F 55% 30.02 in 10.0 mi NE 5.8 mph - N/A   Mostly Cloudy
4:55 PM 27.3 °F 20.9 °F 12.2 °F 53% 30.02 in 10.0 mi NE 5.8 mph - N/A   Mostly Cloudy
5:15 PM 27.9 °F 22.6 °F 12.4 °F 52% 30.03 in 10.0 mi ENE 4.6 mph - N/A   Scattered Clouds
5:35 PM 27.5 °F 22.2 °F 11.5 °F 51% 30.03 in 10.0 mi ENE 4.6 mph - N/A   Scattered Clouds
5:55 PM 27.0 °F 20.5 °F 10.9 °F 51% 30.04 in 10.0 mi NNE 5.8 mph - N/A   Clear
6:15 PM 26.4 °F 20.9 °F 10.6 °F 51% 30.04 in 10.0 mi East 4.6 mph - N/A   Clear
6:35 PM 25.5 °F 19.9 °F 10.2 °F 52% 30.05 in 10.0 mi ENE 4.6 mph - N/A   Clear
6:55 PM 24.6 °F 17.7 °F 11.3 °F 57% 30.05 in 10.0 mi ENE 5.8 mph - N/A   Clear
7:15 PM 23.9 °F 19.5 °F 10.8 °F 57% 30.06 in 10.0 mi East 3.5 mph - N/A   Clear
7:35 PM 23.4 °F 18.9 °F 11.7 °F 61% 30.06 in 10.0 mi ENE 3.5 mph - N/A   Clear
7:55 PM 23.2 °F 18.7 °F 10.2 °F 58% 30.07 in 10.0 mi East 3.5 mph - N/A   Clear
8:15 PM 22.8 °F 16.7 °F 9.9 °F 58% 30.08 in 10.0 mi East 4.6 mph - N/A   Clear
8:35 PM 22.6 °F 16.5 °F 9.3 °F 57% 30.08 in 10.0 mi ESE 4.6 mph - N/A   Clear
8:55 PM 22.1 °F - 10.2 °F 60% 30.08 in 10.0 mi Calm Calm - N/A   Clear
9:15 PM 22.5 °F - 10.2 °F 59% 30.08 in 10.0 mi Calm Calm - N/A   Clear
9:35 PM 19.9 °F - 10.8 °F 68% 30.09 in 10.0 mi Calm Calm - N/A   Clear
9:55 PM 18.3 °F - 11.3 °F 74% 30.09 in 10.0 mi Calm Calm - N/A   Clear
10:15 PM 18.0 °F - 11.3 °F 75% 30.09 in 10.0 mi Calm Calm - N/A   Clear
10:35 PM 16.5 °F - 11.5 °F 81% 30.09 in 10.0 mi Calm Calm - N/A   Clear
10:55 PM 16.3 °F - 11.1 °F 80% 30.09 in 10.0 mi Calm Calm - N/A   Clear
11:15 PM 15.8 °F - 10.6 °F 80% 30.09 in 10.0 mi Calm Calm - N/A   Clear
11:35 PM 15.6 °F - 11.3 °F 83% 30.09 in 10.0 mi Calm Calm - N/A   Clear
11:55 PM 14.9 °F - 10.8 °F 84% 30.09 in 10.0 mi Calm Calm - N/A   Clear